FW6365 Weather Reports


time (UTC)temp
F
wind
direction
speed
knots
gust
knots
rain 1hr
in
rain 24hr
in
rain mn
in
humidity
%
barometer
mb
20260503224025 83 346 6.1 12.2 0.00 0.00 0.00 41 1010.3
20260503223528 83 335 6.1 10.4 0.00 0.00 0.00 41 1010.4
20260503223044 83 294 6.1 10.4 0.00 0.00 0.00 42 1010.6
20260503222526 83 326 6.1 9.6 0.00 0.00 0.00 42 1010.7
20260503222025 83 346 3.5 10.4 0.00 0.00 0.00 44 1010.8
20260503221551 82 338 6.1 11.3 0.00 0.00 0.00 41 1010.8
20260503221026 82 13 6.1 11.3 0.00 0.00 0.00 45 1010.9
20260503220528 83 336 3.5 8.7 0.00 0.00 0.00 42 1010.9
20260503220043 82 24 4.3 8.7 0.00 0.00 0.00 46 1011.0
20260503215526 82 55 3.5 11.3 0.00 0.00 0.00 45 1011.1
20260503215025 82 19 4.3 12.2 0.00 0.00 0.00 44 1011.2
20260503214540 82 327 5.2 12.2 0.00 0.00 0.00 44 1011.3
20260503214025 82 316 2.6 8.7 0.00 0.00 0.00 44 1011.3
20260503213525 82 121 1.7 11.3 0.00 0.00 0.00 47 1011.4
20260503213040 81 343 4.3 11.3 0.00 0.00 0.00 46 1011.4
20260503212525 81 29 5.2 11.3 0.00 0.00 0.00 43 1011.5
20260503212026 81 14 5.2 13.9 0.00 0.00 0.00 46 1011.5
20260503211539 81 34 5.2 13.9 0.00 0.00 0.00 44 1011.5
20260503211029 80 19 7.8 13.9 0.00 0.00 0.00 44 1011.6
20260503210529 81 22 5.2 12.2 0.00 0.00 0.00 47 1011.6
20260503210045 81 350 2.6 10.4 0.00 0.00 0.00 46 1011.7
20260503205523 80 349 2.6 10.4 0.00 0.00 0.00 50 1011.7
20260503205026 80 38 5.2 9.6 0.00 0.00 0.00 45 1011.7
20260503204544 80 15 2.6 9.6 0.00 0.00 0.00 48 1011.9
20260503204026 80 38 3.5 10.4 0.00 0.00 0.00 49 1011.8
20260503203530 80 309 5.2 12.2 0.00 0.00 0.00 48 1012.0
20260503203041 80 110 4.3 12.2 0.00 0.00 0.00 50 1012.0
20260503202526 80 42 6.1 12.2 0.00 0.00 0.00 47 1012.0
20260503202026 79 19 3.5 12.2 0.00 0.00 0.00 45 1012.1
20260503201541 79 309 3.5 12.2 0.00 0.00 0.00 49 1012.1
20260503201025 79 5 6.1 12.2 0.00 0.00 0.00 45 1012.2
20260503200525 79 19 3.5 12.2 0.00 0.00 0.00 49 1012.3
20260503200041 79 128 2.6 12.2 0.00 0.00 0.00 49 1012.4
20260503195526 78 303 4.3 12.2 0.00 0.00 0.00 47 1012.5
20260503195029 79 155 2.6 7.0 0.00 0.00 0.00 48 1012.6
20260503194542 78 107 2.6 7.0 0.00 0.00 0.00 52 1012.7
20260503194022 78 12 3.5 11.3 0.00 0.00 0.00 51 1012.8
20260503193528 78 68 4.3 11.3 0.00 0.00 0.00 51 1012.9
20260503193044 77 0 1.7 10.4 0.00 0.00 0.00 52 1013.0
20260503192523 77 333 3.5 10.4 0.00 0.00 0.00 52 1013.1
20260503192025 77 50 4.3 9.6 0.00 0.00 0.00 53 1013.2
20260503191542 76 31 3.5 9.6 0.00 0.00 0.00 53 1013.2
20260503191027 76 321 6.1 9.6 0.00 0.00 0.00 53 1013.2
20260503190524 76 351 3.5 9.6 0.00 0.00 0.00 55 1013.2
20260503190042 75 307 4.3 10.4 0.00 0.00 0.00 56 1013.3
20260503185524 76 342 3.5 10.4 0.00 0.00 0.00 52 1013.2
20260503185024 75 14 3.5 10.4 0.00 0.00 0.00 53 1013.3
20260503184540 75 73 4.3 10.4 0.00 0.00 0.00 56 1013.4
20260503184025 74 133 3.5 10.4 0.00 0.00 0.00 54 1013.4
20260503183525 74 22 3.5 8.7 0.00 0.00 0.00 56 1013.5
20260503183056 74 342 3.5 8.7 0.00 0.00 0.00 58 1013.5
20260503182525 74 71 3.5 10.4 0.00 0.00 0.00 57 1013.6
20260503182027 73 9 3.5 11.3 0.00 0.00 0.00 55 1013.6
20260503181554 73 316 3.5 11.3 0.00 0.00 0.00 56 1013.8
20260503181025 72 26 6.1 11.3 0.00 0.00 0.00 56 1013.7
20260503180525 72 333 4.3 11.3 0.00 0.00 0.00 57 1013.8
20260503180038 72 10 4.3 11.3 0.00 0.00 0.00 57 1013.9
20260503175525 72 339 5.2 11.3 0.00 0.00 0.00 56 1013.8
20260503175025 72 32 5.2 11.3 0.00 0.00 0.00 57 1013.9
20260503174543 71 327 7.8 11.3 0.00 0.00 0.00 58 1013.9
20260503174025 71 17 6.1 11.3 0.00 0.00 0.00 57 1013.9
20260503173525 71 322 6.1 11.3 0.00 0.00 0.00 58 1013.9
20260503173050 71 349 5.2 10.4 0.00 0.00 0.00 60 1013.9
20260503172529 71 40 4.3 10.4 0.00 0.00 0.00 60 1014.0
20260503172026 70 333 3.5 8.7 0.00 0.00 0.00 60 1013.9
20260503171542 70 28 3.5 11.3 0.00 0.00 0.00 62 1013.9
20260503171025 69 50 4.3 12.2 0.00 0.00 0.00 60 1014.1
20260503170525 69 321 6.1 12.2 0.00 0.00 0.00 63 1014.0
20260503150525 57 19 1.7 4.3 0.00 0.00 0.00 88 1014.4
20260503131028 45 0 0.0 0.9 0.00 0.00 0.00 97 1013.9
20260503130524 46 0 0.0 0.9 0.00 0.00 0.00 97 1013.8
20260503110526 47 0 0.0 0.9 0.00 0.00 0.00 96 1014.2
20260503081544 50 0 0.0 0.0 0.00 0.00 0.00 93 1014.5
20260503081026 50 0 0.0 0.0 0.00 0.00 0.00 93 1014.5
20260503080526 50 0 0.0 0.0 0.00 0.00 0.00 93 1014.5
20260503072527 51 0 0.0 0.9 0.00 0.00 0.00 93 1014.6
20260503072027 51 335 0.0 0.9 0.00 0.00 0.00 92 1014.7
20260503071541 51 0 0.0 0.9 0.00 0.00 0.00 92 1014.7
20260503071026 52 0 0.0 0.9 0.00 0.00 0.00 91 1014.6
20260503070526 52 0 0.0 0.9 0.00 0.00 0.00 92 1014.7
20260503055026 55 0 0.0 0.9 0.00 0.00 0.00 85 1014.4
20260503054543 56 0 0.0 0.0 0.00 0.00 0.00 85 1014.4
20260503054026 56 0 0.0 0.9 0.00 0.00 0.00 84 1014.4
20260503053526 57 0 0.0 0.9 0.00 0.00 0.00 82 1014.5
20260503053040 58 63 0.0 1.7 0.00 0.00 0.00 81 1014.5
20260503052528 58 63 0.0 1.7 0.00 0.00 0.00 79 1014.5
20260503052026 59 46 0.9 1.7 0.00 0.00 0.00 79 1014.5
20260503051548 59 11 0.9 1.7 0.00 0.00 0.00 78 1014.4
20260503051026 59 36 0.9 1.7 0.00 0.00 0.00 76 1014.4
20260503050526 60 49 0.9 1.7 0.00 0.00 0.00 76 1014.4
20260503050045 60 52 0.9 1.7 0.00 0.00 0.00 76 1014.4
20260503045526 60 49 0.9 2.6 0.00 0.00 0.00 76 1014.3
20260503045028 60 46 0.9 2.6 0.00 0.00 0.00 77 1014.2
20260503044543 60 26 0.9 1.7 0.00 0.00 0.00 77 1014.2
20260503044025 60 28 0.9 2.6 0.00 0.00 0.00 77 1014.2
20260503043525 61 13 0.9 2.6 0.00 0.00 0.00 76 1014.1
20260503043044 61 19 0.9 0.9 0.00 0.00 0.00 76 1014.1
20260503042526 61 30 0.0 1.7 0.00 0.00 0.00 75 1014.0
20260503042026 62 26 0.0 1.7 0.00 0.00 0.00 74 1014.0
20260503041540 62 22 0.9 1.7 0.00 0.00 0.00 72 1014.0
20260503041029 63 22 0.0 1.7 0.00 0.00 0.00 71 1013.9
20260503040526 63 22 0.0 0.9 0.00 0.00 0.00 71 1013.8
20260503040050 63 22 0.0 0.9 0.00 0.00 0.00 70 1013.7
20260503035527 63 22 0.0 1.7 0.00 0.00 0.00 70 1013.6
20260503035026 64 14 0.9 1.7 0.00 0.00 0.00 69 1013.6
20260503034546 64 18 0.0 1.7 0.00 0.00 0.00 69 1013.5
20260503034026 65 18 0.0 1.7 0.00 0.00 0.00 70 1013.4
20260503033525 65 9 0.0 0.9 0.00 0.00 0.00 68 1013.3
20260503033048 66 355 0.0 0.9 0.00 0.00 0.00 67 1013.3
20260503032526 67 355 0.0 0.9 0.00 0.00 0.00 63 1013.2
20260503032026 68 350 0.0 0.9 0.00 0.00 0.00 64 1013.1
20260503031540 69 16 0.0 1.7 0.00 0.00 0.00 62 1013.1
20260503031026 70 16 0.0 1.7 0.00 0.00 0.00 60 1013.1
20260503030526 70 21 0.9 2.6 0.00 0.00 0.00 57 1012.9
20260503030040 71 344 0.9 2.6 0.00 0.00 0.00 56 1012.9
20260503025526 72 10 0.0 1.7 0.00 0.00 0.00 55 1012.8
20260503025026 73 10 0.9 2.6 0.00 0.00 0.00 53 1012.8
20260503024540 73 339 0.9 4.3 0.00 0.00 0.00 53 1012.8
20260503024026 74 323 0.9 4.3 0.00 0.00 0.00 53 1012.6
20260503023526 74 26 0.9 4.3 0.00 0.00 0.00 51 1012.7
20260503023040 74 28 1.7 3.5 0.00 0.00 0.00 50 1012.6
20260503022527 74 326 1.7 7.8 0.00 0.00 0.00 50 1012.6
20260503022036 74 17 2.6 7.8 0.00 0.00 0.00 49 1012.6
20260503021543 75 15 2.6 7.0 0.00 0.00 0.00 49 1012.4
20260503021028 75 343 1.7 11.3 0.00 0.00 0.00 49 1012.5
20260503020526 75 16 4.3 11.3 0.00 0.00 0.00 49 1012.5
20260503020042 75 26 5.2 11.3 0.00 0.00 0.00 49 1012.5
20260503015525 75 13 3.5 7.8 0.00 0.00 0.00 49 1012.5
20260503015025 76 345 1.7 7.8 0.00 0.00 0.00 50 1012.5
20260503014542 76 344 1.7 6.1 0.00 0.00 0.00 48 1012.5
20260503014025 76 49 1.7 7.0 0.00 0.00 0.00 50 1012.4
20260503013526 76 41 3.5 8.7 0.00 0.00 0.00 49 1012.5
20260503013050 76 46 2.6 12.2 0.00 0.00 0.00 49 1012.5
20260503012527 76 86 1.7 12.2 0.00 0.00 0.00 50 1012.5
20260503012026 76 19 4.3 9.6 0.00 0.00 0.00 49 1012.6
20260503011543 76 26 2.6 7.0 0.00 0.00 0.00 49 1012.5
20260503011028 76 46 2.6 7.8 0.00 0.00 0.00 49 1012.6
20260503010528 76 40 1.7 7.8 0.00 0.00 0.00 48 1012.5
20260503005525 76 348 3.5 8.7 0.00 0.00 0.00 48 1012.5
20260503005028 77 360 2.6 8.7 0.00 0.00 0.00 49 1012.7
20260503004611 77 150 1.7 8.7 0.00 0.00 0.00 49 1012.7
20260503004026 77 27 1.7 6.1 0.00 0.00 0.00 51 1012.7
20260503003526 77 0 1.7 10.4 0.00 0.00 0.00 53 1012.7
20260503003041 76 19 2.6 10.4 0.00 0.00 0.00 52 1012.7
20260503002526 76 84 2.6 7.8 0.00 0.00 0.00 53 1012.7
20260503002026 76 67 1.7 6.1 0.00 0.00 0.00 53 1012.7
20260503001541 76 50 2.6 7.8 0.00 0.00 0.00 54 1012.8
20260503001026 76 327 2.6 10.4 0.00 0.00 0.00 53 1012.8
20260503000526 76 80 3.5 12.2 0.00 0.00 0.00 53 1012.9
20260503000042 76 105 1.7 12.2 0.00 0.00 0.00 55 1012.9
20260502235525 75 355 7.0 12.2 0.00 0.00 0.00 54 1012.9
20260502235029 76 342 5.2 10.4 0.00 0.00 0.00 53 1012.9
20260502234541 76 337 4.3 10.4 0.00 0.00 0.00 54 1013.0
20260502234026 76 13 5.2 11.3 0.00 0.00 0.00 52 1013.1
20260502233526 76 16 4.3 12.2 0.00 0.00 0.00 52 1013.0
20260502233039 76 36 5.2 13.0 0.00 0.00 0.00 53 1013.2
20260502232528 76 10 7.8 13.0 0.00 0.00 0.00 51 1013.2
20260502232026 76 67 5.2 12.2 0.00 0.00 0.00 52 1013.3
20260502231546 76 38 5.2 11.3 0.00 0.00 0.00 52 1013.4
20260502231026 76 18 3.5 9.6 0.00 0.00 0.00 52 1013.5
20260502230526 76 350 3.5 11.3 0.00 0.00 0.00 53 1013.6
20260502230044 76 94 4.3 11.3 0.00 0.00 0.00 54 1013.7
20260502225525 76 329 2.6 10.4 0.00 0.00 0.00 55 1013.8
20260502225025 76 343 1.7 10.4 0.00 0.00 0.00 56 1013.8
20260502224543 75 5 6.1 10.4 0.00 0.00 0.00 55 1013.8